Tokyo, Japan

5:56 PM JST on June 29, 2017 (GMT +0900)
Tokyo (Haneda) International

Weather History for RJTT - April, 2017

Change the Weather History Date:

Friday, April 21, 2017

  Actual Average Record
Temperature  
Mean Temperature 60 °F -  
Max Temperature 64 °F 68 °F 77 °F (1998)
Min Temperature 57 °F 56 °F 42 °F (2013)
Degree Days  
Heating Degree Days 4    
Growing Degree Days 10 (Base 50)    
Moisture  
Dew Point 53 °F    
Average Humidity 77    
Maximum Humidity 88    
Minimum Humidity 68    
Precipitation  
Precipitation 0.00 in - - ()
Sea Level Pressure  
Sea Level Pressure 29.75 in    
Wind  
Wind Speed 5 mph ()    
Max Wind Speed 12 mph    
Max Gust Speed -    
Visibility 6.2 miles    
Events Rain    
Averages and records for this station are not official NWS values.
T = Trace of Precipitation, MM = Missing Value Source: Averaged Metar Reports

Daily Weather History Graph

Daily Weather History Graph

Search for Another Location

Airport or City:

Trip Planner

Search our weather history database for the weather conditions in past years. The results will help you decide how hot, cold, wet, or windy it might be!

Date:

Astronomy

Apr. 21, 2017 Rise Set
Actual Time 5:01 AM JST 6:18 PM JST
Civil Twilight 4:34 AM JST 6:45 PM JST
Nautical Twilight 4:02 AM JST 7:17 PM JST
Astronomical Twilight 3:29 AM JST 7:50 PM JST
Moon 1:39 AM JST (4/21) 12:36 PM JST (4/21)
Length of Visible Light 14h 10m
Length of Day
13h 17m
Waning Crescent, 33% of the Moon is Illuminated
Apr 21
Waning Crescent
Apr 26
New
May 3
First Quarter
May 11
Full
May 19
Last Quarter

Hourly Weather History & Observations

Time (JST) Temp. Dew Point Humidity Pressure Visibility Wind Dir Wind Speed Gust Speed Precip Events Conditions
12:00 AM 57.2 °F 51.8 °F 82% 29.86 in 6.2 mi ESE 5.8 mph - N/A   Mostly Cloudy
12:30 AM 59.0 °F 53.6 °F 82% 29.86 in 6.2 mi East 5.8 mph - N/A   Mostly Cloudy
1:00 AM 59.0 °F 51.8 °F 77% 29.86 in 6.2 mi ENE 5.8 mph - N/A   Mostly Cloudy
1:30 AM 59.0 °F 51.8 °F 77% 29.83 in 6.2 mi ENE 5.8 mph - N/A   Mostly Cloudy
2:00 AM 57.2 °F 51.8 °F 82% 29.86 in 6.2 mi North 3.5 mph - N/A   Mostly Cloudy
2:30 AM 59.0 °F 51.8 °F 77% 29.86 in 6.2 mi Variable 1.2 mph - N/A   Mostly Cloudy
3:00 AM 59.0 °F 51.8 °F 77% 29.83 in 6.2 mi NNE 3.5 mph - N/A   Mostly Cloudy
3:30 AM 59.0 °F 51.8 °F 77% 29.83 in 6.2 mi NE 3.5 mph - N/A   Mostly Cloudy
4:00 AM 59.0 °F 51.8 °F 77% 29.83 in 6.2 mi NNE 4.6 mph - N/A   Mostly Cloudy
4:30 AM 59.0 °F 51.8 °F 77% 29.83 in 6.2 mi NE 5.8 mph - N/A   Mostly Cloudy
5:00 AM 59.0 °F 51.8 °F 77% 29.83 in 6.2 mi NE 4.6 mph - N/A   Mostly Cloudy
5:30 AM 59.0 °F 51.8 °F 77% 29.83 in 6.2 mi ENE 5.8 mph - N/A   Mostly Cloudy
6:00 AM 59.0 °F 51.8 °F 77% 29.80 in 6.2 mi ENE 5.8 mph - N/A   Mostly Cloudy
6:30 AM 59.0 °F 51.8 °F 77% 29.83 in 6.2 mi NE 6.9 mph - N/A   Mostly Cloudy
7:00 AM 59.0 °F 51.8 °F 77% 29.80 in 6.2 mi NE 8.1 mph - N/A   Mostly Cloudy
7:30 AM 59.0 °F 51.8 °F 77% 29.80 in 6.2 mi ENE 8.1 mph - N/A   Mostly Cloudy
8:00 AM 59.0 °F 51.8 °F 77% 29.80 in 6.2 mi NE 4.6 mph - N/A   Mostly Cloudy
8:30 AM 59.0 °F 51.8 °F 77% 29.80 in 6.2 mi NNE 4.6 mph - N/A   Mostly Cloudy
9:00 AM 59.0 °F 51.8 °F 77% 29.80 in 6.2 mi ENE 3.5 mph - N/A   Mostly Cloudy
9:30 AM 59.0 °F 51.8 °F 77% 29.80 in 6.2 mi ENE 4.6 mph - N/A   Mostly Cloudy
10:00 AM 59.0 °F 51.8 °F 77% 29.80 in 6.2 mi East 4.6 mph - N/A   Mostly Cloudy
10:30 AM 59.0 °F 51.8 °F 77% 29.80 in 6.2 mi East 4.6 mph - N/A   Mostly Cloudy
11:00 AM 59.0 °F 51.8 °F 77% 29.77 in 6.2 mi ESE 3.5 mph - N/A Rain Light Rain
11:30 AM 59.0 °F 53.6 °F 82% 29.74 in 6.2 mi SE 3.5 mph - N/A   Mostly Cloudy
12:00 PM 60.8 °F 53.6 °F 77% 29.74 in 6.2 mi SE 4.6 mph - N/A Rain Light Rain
12:30 PM 60.8 °F 53.6 °F 77% 29.74 in 6.2 mi ESE 4.6 mph - N/A   Mostly Cloudy
1:00 PM 62.6 °F 53.6 °F 72% 29.74 in 6.2 mi South 6.9 mph - N/A   Mostly Cloudy
1:30 PM 64.4 °F 55.4 °F 73% 29.71 in 6.2 mi ESE 9.2 mph - N/A   Mostly Cloudy
2:00 PM 62.6 °F 53.6 °F 72% 29.71 in 6.2 mi ESE 9.2 mph - N/A   Mostly Cloudy
2:30 PM 62.6 °F 51.8 °F 68% 29.68 in 6.2 mi SSE 9.2 mph - N/A   Mostly Cloudy
3:00 PM 62.6 °F 51.8 °F 68% 29.68 in 6.2 mi SE 9.2 mph - N/A   Mostly Cloudy
3:30 PM 62.6 °F 51.8 °F 68% 29.68 in 6.2 mi SSE 8.1 mph - N/A   Mostly Cloudy
4:00 PM 62.6 °F 51.8 °F 68% 29.68 in 6.2 mi SSE 10.4 mph - N/A   Mostly Cloudy
4:30 PM 62.6 °F 51.8 °F 68% 29.65 in - South 11.5 mph - N/A   Clear
5:00 PM 62.6 °F 51.8 °F 68% 29.65 in - South 11.5 mph - N/A   Clear
5:30 PM 62.6 °F 51.8 °F 68% 29.65 in 6.2 mi South 11.5 mph - N/A   Mostly Cloudy
6:00 PM 62.6 °F 53.6 °F 72% 29.65 in 6.2 mi South 11.5 mph - N/A   Mostly Cloudy
6:30 PM 60.8 °F 53.6 °F 77% 29.65 in 6.2 mi South 9.2 mph - N/A   Mostly Cloudy
7:00 PM 60.8 °F 53.6 °F 77% 29.68 in 6.2 mi South 9.2 mph - N/A   Mostly Cloudy
7:30 PM 60.8 °F 53.6 °F 77% 29.68 in 6.2 mi South 10.4 mph - N/A   Mostly Cloudy
8:00 PM 60.8 °F 53.6 °F 77% 29.68 in 6.2 mi SSW 6.9 mph - N/A   Partly Cloudy
8:30 PM 60.8 °F 55.4 °F 82% 29.68 in 6.2 mi South 5.8 mph - N/A   Partly Cloudy
9:00 PM 59.0 °F 55.4 °F 88% 29.68 in 6.2 mi South 5.8 mph - N/A   Partly Cloudy
9:30 PM 59.0 °F 55.4 °F 88% 29.68 in 6.2 mi South 6.9 mph - N/A   Partly Cloudy
10:00 PM 59.0 °F 55.4 °F 88% 29.68 in 6.2 mi SW 5.8 mph - N/A   Partly Cloudy
10:30 PM 59.0 °F 55.4 °F 88% 29.68 in 6.2 mi West 3.5 mph - N/A   Partly Cloudy
11:00 PM 59.0 °F 55.4 °F 88% 29.68 in 6.2 mi West 3.5 mph - N/A   Partly Cloudy
11:30 PM 59.0 °F 55.4 °F 88% 29.68 in 6.2 mi NW 4.6 mph - N/A   Partly Cloudy